Home > Weather > Ahvaz > Past weeks

Flag for Iran Past Weather in Ahvaz, Iran — Yesterday and Last 2 Weeks

Now
84 °F

Clear.


Feels Like: 82 °F
Forecast: 79 / 101 °F
Wind: 9 mph from Northwest

Location: Ahwaz

Current Time: Jun 1, 2016 at 4:23:09 AM

Latest Report: Jun 1, 2016 at 3:30 AM


Visibility: 10 mi

Pressure: 29.68 "Hg

Humidity: 27%

Dew Point: 46 °F

Location of AhvazLocation

Past Weather in Ahvaz — Graph

°F

Ahvaz Temperature Yesterday

Maximum temperature yesterday: 99 °F (at 2:30 PM)
Minimum temperature yesterday: 79 °F (at 6:30 AM)
Average temperature yesterday: 91 °F

High & Low Weather Summary for the Past Weeks

 TemperatureHumidityPressure
High115 °F (May 17, 6:30 PM)62% (May 18, 5:38 AM)29.74 "Hg (May 18, 5:38 AM)
Low73 °F (May 23, 6:30 AM)7% (May 20, 4:55 PM)29.50 "Hg (May 19, 5:30 PM)
Average95 °F21%29.64 "Hg
* Reported May 17 2:30 AM — Jun 1 2:30 AM, Ahvaz, Weather by CustomWeather, © 2016

Note: Actual official high and low records may vary slightly from our data, if they occured in-between our weather recording intervals... More about our weather records

Advertising

Ahvaz Weather History for the Previous 24 Hours

Scroll right to see more
 ConditionsComfort  
Time TempWeatherWind HumidityBarometerVisibility
2:30 AM
Wed, Jun 1
84 °FClear.9 mph27%29.68 "Hg10 mi
1:29 AM86 °FClear.12 mph25%29.71 "Hg10 mi
1:27 AM86 °FClear.9 mph25%29.71 "Hg10 mi
12:27 AM86 °FClear.9 mph25%29.71 "Hg10 mi
12:00 AM88 °FClear.9 mph24%29.71 "Hg10 mi
11:30 PM
Tue, May 31
88 °FClear.9 mph24%29.71 "Hg10 mi
10:58 PM88 °FClear.7 mph24%29.71 "Hg10 mi
10:30 PM90 °FClear.9 mph21%29.68 "Hg10 mi
10:00 PM90 °FClear.9 mph20%29.68 "Hg10 mi
9:30 PM91 °FSunny.9 mph17%29.68 "Hg10 mi
9:00 PM93 °FSunny.9 mph14%29.68 "Hg10 mi
8:30 PM93 °FSunny.9 mph14%29.68 "Hg10 mi
8:00 PM95 °FSunny.9 mph13%29.65 "Hg10 mi
7:30 PM95 °FSunny.12 mph19%29.65 "Hg10 mi
7:00 PM97 °FSunny.14 mph13%29.65 "Hg10 mi
6:30 PM97 °FSunny.14 mph13%29.65 "Hg10 mi
6:00 PM99 °FSunny.12 mph14%29.65 "Hg10 mi
5:30 PM99 °FSunny.14 mph16%29.65 "Hg10 mi
5:00 PM99 °FSunny.12 mph17%29.65 "Hg10 mi
4:30 PM99 °FSunny.14 mph17%29.68 "Hg10 mi
4:00 PM99 °FSunny.12 mph16%29.68 "Hg10 mi
3:30 PM99 °FSunny.12 mph17%29.68 "Hg10 mi
3:00 PM99 °FSunny.12 mph17%29.68 "Hg10 mi
2:30 PM99 °FSunny.12 mph15%29.68 "Hg10 mi
2:00 PM97 °FSunny.12 mph17%29.71 "Hg10 mi
1:30 PM97 °FSunny.12 mph19%29.71 "Hg10 mi
12:58 PM95 °FSunny.14 mph18%29.71 "Hg10 mi
12:30 PM95 °FSunny.16 mph18%29.71 "Hg10 mi
12:00 PM95 °FSunny.9 mph19%29.71 "Hg10 mi
11:30 AM95 °FSunny.9 mph20%29.71 "Hg10 mi
11:00 AM93 °FSunny.7 mph23%29.71 "Hg10 mi
10:30 AM91 °FSunny.7 mph24%29.71 "Hg10 mi
10:00 AM88 °FSunny.7 mph25%29.71 "Hg10 mi
9:30 AM86 °FSunny.5 mph29%29.71 "Hg10 mi
9:00 AM84 °FSunny.7 mph31%29.71 "Hg10 mi
8:30 AM82 °FSunny.5 mph32%29.71 "Hg10 mi
8:00 AM82 °FSunny.7 mph32%29.71 "Hg10 mi
7:30 AM81 °FClear.7 mph34%29.68 "Hg10 mi
6:30 AM79 °FClear.7 mph32%29.68 "Hg10 mi
5:30 AM81 °FClear.7 mph32%29.68 "Hg10 mi
4:20 AM81 °FClear.9 mph30%29.68 "Hg10 mi
Weather by CustomWeather, © 2016

See weather overviewHow to use our weather pages